DW1006 Weather Reports


Display with metric or nautical units.
time (UTC)temp
F
wind
direction
speed
MPH
gust
MPH
rain 1hr
in
rain 24hr
in
rain mn
in
humidity
%
barometer
mb
20210804100206 67 332 1.0 5.0 0.00 0.01 0.00 72 1014.4
20210804095207 68 0 2.0 5.0 0.00 0.01 0.00 71 1014.3
20210804094705 69 355 0.0 2.0 0.00 0.01 0.00 70 1014.5
20210804094207 68 350 0.0 3.0 0.00 0.01 0.00 70 1014.5
20210804093706 68 350 0.0 3.0 0.00 0.01 0.00 73 1014.4
20210804093207 67 350 0.0 3.0 0.00 0.01 0.00 73 1014.4
20210804092714 67 301 0.0 0.0 0.00 0.01 0.00 73 1014.3
20210804092208 66 300 0.0 5.0 0.00 0.01 0.00 74 1014.3
20210804091706 66 300 1.0 7.0 0.00 0.01 0.00 76 1014.4
20210804091206 66 300 2.0 7.0 0.00 0.01 0.00 73 1014.5
20210804090706 66 15 2.0 7.0 0.00 0.01 0.00 72 1014.4
20210804090206 65 331 1.0 8.0 0.00 0.01 0.00 74 1014.4
20210804085206 65 320 3.0 8.0 0.00 0.01 0.00 75 1014.3
20210804084706 65 308 3.0 8.0 0.00 0.01 0.00 74 1014.3
20210804084207 65 331 2.0 4.0 0.00 0.01 0.00 75 1014.4
20210804083707 65 0 1.0 4.0 0.00 0.01 0.00 77 1014.5
20210804083205 64 13 0.0 7.0 0.00 0.01 0.00 78 1014.4
20210804082706 64 323 1.0 7.0 0.00 0.01 0.00 79 1014.5
20210804082206 64 346 2.0 7.0 0.00 0.01 0.00 78 1014.5
20210804081709 63 333 2.0 5.0 0.00 0.01 0.00 81 1014.5
20210804081206 63 5 1.0 3.0 0.00 0.01 0.00 80 1014.5
20210804080709 63 321 1.0 3.0 0.00 0.01 0.00 83 1014.5
20210804080210 62 336 1.0 3.0 0.00 0.01 0.00 84 1014.4
20210804075206 62 332 0.0 0.0 0.00 0.01 0.00 86 1014.5
20210804074705 61 332 0.0 0.0 0.00 0.01 0.00 86 1014.5
20210804074206 61 24 0.0 0.0 0.00 0.01 0.00 86 1014.4
20210804073713 61 32 0.0 0.0 0.00 0.01 0.00 88 1014.4
20210804073206 60 236 0.0 0.0 0.00 0.01 0.00 90 1014.3
20210804072708 60 236 0.0 0.0 0.00 0.01 0.00 90 1014.4
20210804072206 59 236 0.0 0.0 0.00 0.01 0.00 91 1014.5
20210804071705 59 236 0.0 0.0 0.00 0.01 0.00 92 1014.5
20210804071207 59 236 0.0 0.0 0.00 0.01 0.00 92 1014.6
20210804070706 58 236 0.0 0.0 0.00 0.01 0.00 93 1014.6
20210804070207 58 236 0.0 0.0 0.00 0.01 0.00 94 1014.7
20210804065209 57 236 0.0 0.0 0.00 0.01 0.00 95 1014.7
20210804064709 57 236 0.0 0.0 0.00 0.01 0.00 95 1014.6
20210804064207 56 236 0.0 0.0 0.00 0.01 0.00 96 1014.6
20210804063707 56 236 0.0 0.0 0.00 0.01 0.00 96 1014.6
20210804063206 56 236 0.0 0.0 0.00 0.01 0.00 96 1014.6
20210804062706 56 232 0.0 0.0 0.00 0.01 0.00 97 1014.5
20210804062206 55 283 0.0 2.0 0.00 0.01 0.00 97 1014.6
20210804061706 55 284 0.0 2.0 0.00 0.01 0.00 97 1014.5
20210804061207 55 284 0.0 2.0 0.00 0.01 0.00 97 1014.5
20210804060706 55 286 0.0 2.0 0.00 0.01 0.00 97 1014.5
20210804060207 55 286 0.0 2.0 0.00 0.01 0.00 97 1014.4
20210804055709 55 286 0.0 2.0 0.00 0.01 0.00 97 1014.3
20210804055206 54 286 0.0 2.0 0.00 0.01 0.00 97 1014.3
20210804054709 54 286 0.0 1.0 0.00 0.01 0.00 97 1014.3
20210804054206 54 291 0.0 1.0 0.00 0.01 0.00 97 1014.2
20210804053716 54 291 0.0 1.0 0.00 0.01 0.00 97 1014.2
20210804053205 54 291 0.0 0.0 0.00 0.01 0.00 97 1014.3
20210804052709 54 291 0.0 0.0 0.00 0.01 0.00 97 1014.2
20210804052206 54 291 0.0 1.0 0.00 0.01 0.00 97 1014.1
20210804051707 53 291 0.0 1.0 0.00 0.01 0.00 97 1014.1
20210804051206 53 291 0.0 1.0 0.00 0.01 0.00 97 1014.1
20210804050717 53 291 0.0 1.0 0.00 0.01 0.00 97 1014.1
20210804050206 53 291 0.0 2.0 0.00 0.01 0.00 97 1014.1
20210804045728 53 291 0.0 2.0 0.00 0.01 0.00 97 1014.0
20210804045209 53 291 0.0 2.0 0.00 0.01 0.00 97 1014.1
20210804044706 53 291 0.0 1.0 0.00 0.01 0.00 97 1014.0
20210804044206 52 291 0.0 1.0 0.00 0.01 0.00 97 1014.0
20210804043706 52 291 0.0 1.0 0.00 0.02 0.00 97 1014.0
20210804043206 52 291 0.0 1.0 0.00 0.02 0.00 97 1014.0
20210804042723 52 291 0.0 1.0 0.00 0.02 0.00 97 1013.9
20210804042207 52 291 0.0 1.0 0.00 0.02 0.00 97 1013.9
20210804041706 52 291 0.0 1.0 0.00 0.02 0.00 97 1013.9
20210804041206 52 291 0.0 1.0 0.00 0.02 0.00 96 1013.9
20210804040706 52 291 0.0 1.0 0.00 0.02 0.00 96 1013.9
20210804040206 52 291 0.0 3.0 0.00 0.02 0.00 96 1013.9
20210804035713 52 291 0.0 3.0 0.00 0.02 0.00 96 1013.9
20210804035206 52 291 1.0 3.0 0.00 0.02 0.00 96 1013.9
20210804034705 52 291 0.0 0.0 0.00 0.02 0.00 96 1013.9
20210804034207 52 317 0.0 0.0 0.00 0.02 0.00 96 1013.9
20210804033706 52 317 0.0 0.0 0.00 0.02 0.00 96 1013.8
20210804033218 52 317 0.0 0.0 0.00 0.02 0.00 96 1013.9
20210804032718 52 317 0.0 0.0 0.00 0.02 0.00 96 1013.8
20210804032206 52 317 0.0 0.0 0.00 0.02 0.00 96 1013.8
20210804031705 52 317 0.0 0.0 0.00 0.02 0.00 96 1013.7
20210804031206 52 317 0.0 0.0 0.00 0.02 0.00 96 1013.6
20210804030706 52 317 0.0 0.0 0.00 0.02 0.00 96 1013.7
20210804030206 52 317 0.0 0.0 0.00 0.02 0.00 96 1013.7
20210804025708 52 317 0.0 0.0 0.00 0.02 0.00 96 1013.7
20210804025206 53 317 0.0 0.0 0.00 0.02 0.00 96 1013.7
20210804024715 53 317 0.0 0.0 0.00 0.02 0.00 96 1013.6
20210804024207 53 317 0.0 0.0 0.00 0.02 0.00 96 1013.7
20210804023707 53 317 0.0 0.0 0.00 0.02 0.00 96 1013.7
20210804023206 53 317 0.0 0.0 0.00 0.02 0.00 95 1013.7
20210804022706 53 317 0.0 1.0 0.00 0.02 0.00 95 1013.8
20210804022210 53 317 0.0 2.0 0.00 0.03 0.00 95 1013.8
20210804021707 53 317 0.0 2.0 0.00 0.03 0.00 95 1013.9
20210804021206 53 317 0.0 2.0 0.00 0.03 0.00 95 1013.9
20210804020706 53 317 0.0 2.0 0.00 0.03 0.00 95 1013.9
20210804020206 53 317 0.0 2.0 0.00 0.03 0.00 95 1013.9
20210804015708 53 317 0.0 2.0 0.00 0.03 0.00 95 1014.0
20210804015206 53 317 0.0 2.0 0.00 0.03 0.00 95 1014.0
20210804014712 53 317 0.0 2.0 0.00 0.03 0.00 95 1014.0
20210804014206 53 317 0.0 1.0 0.00 0.03 0.00 95 1014.0
20210804013713 53 317 0.0 1.0 0.00 0.03 0.00 95 1013.9
20210804013206 53 317 0.0 1.0 0.00 0.03 0.00 95 1013.9
20210804012706 54 317 0.0 1.0 0.00 0.03 0.00 94 1013.9
20210804012209 54 317 0.0 1.0 0.00 0.03 0.00 94 1014.0
20210804011705 54 317 0.0 1.0 0.00 0.03 0.00 94 1013.9
20210804011207 54 317 0.0 1.0 0.00 0.03 0.00 94 1013.9
20210804010705 54 317 0.0 2.0 0.00 0.03 0.00 94 1013.9
20210804010206 54 317 0.0 2.0 0.00 0.03 0.00 94 1013.9
20210804005706 54 317 0.0 2.0 0.00 0.03 0.00 94 1013.9
20210804005206 55 317 0.0 1.0 0.00 0.03 0.00 93 1013.9
20210804004706 55 317 0.0 1.0 0.00 0.03 0.00 93 1013.9
20210804004206 55 317 0.0 0.0 0.00 0.03 0.00 93 1013.9
20210804003712 55 317 0.0 0.0 0.00 0.03 0.00 93 1013.9
20210804003206 55 317 0.0 0.0 0.00 0.03 0.00 93 1013.9
20210804002706 55 317 0.0 0.0 0.00 0.03 0.00 93 1013.9
20210804002206 55 317 0.0 1.0 0.00 0.03 0.00 93 1013.9
20210804001712 56 317 0.0 1.0 0.00 0.03 0.00 92 1013.9
20210804001206 56 317 0.0 1.0 0.00 0.03 0.00 92 1013.9
20210804000706 56 317 0.0 1.0 0.00 0.03 0.00 92 1013.9
20210804000205 56 317 0.0 1.0 0.00 0.03 0.00 92 1013.9
20210803235709 56 317 0.0 1.0 0.00 0.03 0.00 91 1013.8
20210803235207 56 317 0.0 1.0 0.00 0.03 0.00 91 1013.8
20210803234705 56 317 0.0 0.0 0.00 0.03 0.00 91 1013.8
20210803234207 57 317 0.0 0.0 0.00 0.03 0.00 91 1013.8
20210803233713 57 317 0.0 0.0 0.00 0.03 0.00 91 1013.8
20210803233206 57 317 0.0 2.0 0.00 0.03 0.00 91 1013.8
20210803232711 57 317 0.0 2.0 0.00 0.03 0.00 91 1013.8
20210803232206 57 317 0.0 2.0 0.00 0.03 0.00 91 1013.8
20210803231707 57 317 0.0 1.0 0.00 0.03 0.00 91 1013.8
20210803230706 57 317 0.0 1.0 0.00 0.03 0.00 91 1013.9
20210803230206 57 317 0.0 1.0 0.00 0.03 0.00 92 1013.9
20210803225717 57 317 0.0 2.0 0.00 0.03 0.00 91 1013.8
20210803225208 57 317 0.0 2.0 0.00 0.03 0.00 92 1013.8
20210803224706 56 317 1.0 2.0 0.00 0.03 0.00 92 1013.8
20210803223712 56 317 0.0 1.0 0.00 0.03 0.00 92 1013.8
20210803223226 56 317 0.0 1.0 0.00 0.03 0.00 92 1013.9
20210803222729 56 317 0.0 1.0 0.00 0.03 0.00 92 1014.0
20210803222206 56 317 0.0 1.0 0.00 0.03 0.00 92 1014.0
20210803221707 56 317 0.0 0.0 0.00 0.03 0.00 91 1014.0
20210803220705 57 317 0.0 0.0 0.00 0.03 0.00 91 1013.9
20210803220209 57 317 0.0 0.0 0.00 0.03 0.03 91 1014.0
20210803215714 57 317 0.0 2.0 0.00 0.03 0.03 91 1014.1
20210803215205 57 317 0.0 2.0 0.00 0.03 0.03 91 1014.1
20210803214706 57 317 0.0 2.0 0.00 0.03 0.03 91 1014.1
20210803214213 57 317 0.0 2.0 0.00 0.03 0.03 90 1014.1
20210803213705 57 317 0.0 2.0 0.00 0.03 0.03 90 1014.0
20210803213207 57 317 0.0 0.0 0.00 0.03 0.03 90 1014.0
20210803212706 57 317 0.0 0.0 0.00 0.03 0.03 90 1014.0
20210803211716 58 317 0.0 0.0 0.00 0.03 0.03 89 1014.1
20210803211206 58 317 0.0 0.0 0.00 0.03 0.03 89 1014.0
20210803210706 58 317 0.0 0.0 0.00 0.03 0.03 89 1014.0
20210803210206 58 317 0.0 1.0 0.00 0.03 0.03 88 1013.9
20210803205708 58 317 0.0 1.0 0.00 0.03 0.03 88 1014.0
20210803205206 58 317 0.0 1.0 0.00 0.03 0.03 87 1013.9
20210803204711 58 317 0.0 1.0 0.00 0.03 0.03 87 1013.9
20210803204207 59 317 0.0 1.0 0.00 0.03 0.03 86 1013.9
20210803203706 59 317 0.0 1.0 0.00 0.03 0.03 86 1013.8
20210803203208 59 317 0.0 1.0 0.00 0.03 0.03 85 1013.8
20210803202706 60 317 0.0 1.0 0.00 0.03 0.03 85 1013.8
20210803202207 60 317 0.0 1.0 0.00 0.03 0.03 84 1013.8
20210803201705 60 317 0.0 2.0 0.00 0.03 0.03 83 1013.6
20210803201206 61 317 0.0 3.0 0.00 0.03 0.03 83 1013.6
20210803200711 61 317 1.0 4.0 0.00 0.03 0.03 82 1013.6
20210803200206 61 317 1.0 4.0 0.00 0.03 0.03 82 1013.7
20210803195727 61 315 1.0 4.0 0.00 0.03 0.03 81 1013.6
20210803195218 61 315 1.0 3.0 0.00 0.03 0.03 81 1013.6
20210803194706 62 338 1.0 4.0 0.00 0.03 0.03 81 1013.7
20210803194223 62 344 2.0 4.0 0.00 0.03 0.03 81 1013.6
20210803193709 62 348 2.0 4.0 0.00 0.03 0.03 80 1013.6
20210803193234 62 355 1.0 5.0 0.00 0.03 0.03 80 1013.5
20210803192705 62 310 1.0 5.0 0.00 0.03 0.03 79 1013.6
20210803191707 62 344 2.0 3.0 0.00 0.03 0.03 78 1013.5
20210803191206 62 313 1.0 3.0 0.00 0.03 0.03 77 1013.6
20210803190720 63 313 1.0 4.0 0.00 0.03 0.03 77 1013.4
20210803190206 63 313 1.0 4.0 0.00 0.03 0.03 76 1013.4
20210803185718 63 326 1.0 5.0 0.00 0.03 0.03 76 1013.4
20210803185206 63 326 1.0 5.0 0.00 0.03 0.03 75 1013.3
20210803184729 64 326 2.0 8.0 0.00 0.03 0.03 74 1013.3
20210803184219 64 326 2.0 8.0 0.00 0.03 0.03 74 1013.4
20210803183709 64 344 2.0 5.0 0.00 0.03 0.03 74 1013.3
20210803183205 64 338 2.0 5.0 0.00 0.03 0.03 73 1013.3
20210803182710 64 344 2.0 4.0 0.00 0.03 0.03 73 1013.3
20210803181707 64 332 0.0 0.0 0.00 0.03 0.03 74 1013.5
20210803181209 64 342 0.0 0.0 0.00 0.03 0.03 74 1013.1
20210803180719 65 342 0.0 0.0 0.00 0.03 0.03 73 1013.0
20210803180206 65 342 0.0 0.0 0.00 0.03 0.03 72 1012.9
20210803175709 65 343 0.0 2.0 0.00 0.03 0.03 72 1012.9
20210803175210 65 343 0.0 2.0 0.00 0.03 0.03 71 1012.9
20210803174706 65 344 0.0 3.0 0.00 0.03 0.03 70 1012.9
20210803174206 65 344 0.0 3.0 0.00 0.03 0.03 71 1012.9
20210803173714 66 0 0.0 4.0 0.00 0.03 0.03 70 1012.9
20210803173205 66 344 0.0 8.0 0.00 0.03 0.03 69 1012.9
20210803172707 66 338 1.0 8.0 0.00 0.03 0.03 69 1012.8
20210803172206 66 336 3.0 9.0 0.00 0.03 0.03 69 1012.8
20210803171706 67 0 3.0 9.0 0.00 0.03 0.03 68 1012.7
20210803171206 67 5 2.0 9.0 0.00 0.03 0.03 68 1012.7
20210803170705 67 22 2.0 8.0 0.00 0.03 0.03 68 1012.7
20210803165706 67 0 3.0 8.0 0.00 0.03 0.03 68 1012.7
20210803165206 66 22 3.0 8.0 0.00 0.03 0.03 68 1012.7
20210803164706 66 351 2.0 7.0 0.00 0.03 0.03 69 1012.7
20210803164207 66 329 1.0 8.0 0.00 0.03 0.03 70 1012.7
20210803163706 66 5 2.0 8.0 0.00 0.03 0.03 70 1012.7
20210803163206 66 18 3.0 8.0 0.00 0.03 0.03 73 1012.7
20210803162707 66 0 3.0 7.0 0.00 0.03 0.03 71 1012.7
20210803162208 66 316 4.0 8.0 0.00 0.03 0.03 71 1012.7
20210803161709 66 95 3.0 8.0 0.00 0.03 0.03 71 1012.6
20210803161207 66 318 3.0 8.0 0.00 0.03 0.03 72 1012.7
20210803160706 66 337 3.0 8.0 0.00 0.03 0.03 73 1012.8
20210803160207 66 329 3.0 9.0 0.00 0.03 0.03 74 1012.8
20210803155707 66 0 2.0 9.0 0.00 0.03 0.03 74 1012.8
20210803155208 65 355 3.0 9.0 0.00 0.03 0.03 74 1012.7
20210803154707 65 0 4.0 8.0 0.00 0.03 0.03 73 1012.8
20210803153705 65 25 3.0 7.0 0.00 0.03 0.03 74 1012.8
20210803152706 65 27 4.0 9.0 0.00 0.03 0.03 73 1012.8
20210803152207 65 36 3.0 9.0 0.00 0.03 0.03 73 1012.8
20210803151706 65 5 3.0 10.0 0.00 0.03 0.03 74 1012.7
20210803151206 65 325 3.0 10.0 0.00 0.03 0.03 75 1012.9
20210803150705 65 5 4.0 10.0 0.00 0.03 0.03 75 1012.8
20210803150207 65 323 4.0 9.0 0.00 0.03 0.03 74 1012.8
20210803145706 65 265 3.0 9.0 0.00 0.03 0.03 76 1012.8
20210803145205 65 13 4.0 9.0 0.00 0.03 0.03 77 1012.9
20210803144713 65 342 3.0 8.0 0.00 0.03 0.03 77 1012.8
20210803144206 65 285 3.0 8.0 0.00 0.03 0.03 80 1012.8
20210803143706 65 327 3.0 8.0 0.00 0.03 0.03 79 1012.9
20210803143206 65 300 2.0 8.0 0.00 0.03 0.03 80 1012.9
20210803142206 65 311 3.0 8.0 0.00 0.03 0.03 80 1012.9
20210803141708 65 319 3.0 8.0 0.00 0.03 0.03 79 1012.9
20210803141206 65 329 3.0 8.0 0.00 0.03 0.03 80 1012.9
20210803140706 64 5 3.0 8.0 0.00 0.03 0.03 78 1012.9
20210803140209 64 10 2.0 6.0 0.00 0.03 0.03 79 1012.9
20210803135706 64 315 2.0 6.0 0.00 0.03 0.03 79 1012.9
20210803135208 64 355 2.0 9.0 0.00 0.03 0.03 79 1012.9
20210803134706 64 304 3.0 9.0 0.00 0.03 0.03 79 1013.0
20210803134206 64 330 3.0 9.0 0.00 0.03 0.03 79 1012.9
20210803133706 64 14 4.0 8.0 0.00 0.03 0.03 79 1013.0
20210803133211 64 327 4.0 10.0 0.00 0.03 0.03 79 1012.9
20210803132705 64 22 4.0 10.0 0.00 0.03 0.03 79 1012.9
20210803132208 64 336 3.0 9.0 0.00 0.03 0.03 80 1012.9
20210803131731 64 24 3.0 12.0 0.00 0.03 0.03 81 1013.0
20210803131206 64 308 4.0 12.0 0.00 0.03 0.03 81 1013.1
20210803130709 64 325 4.0 12.0 0.00 0.03 0.03 82 1013.0
20210803130205 64 30 4.0 9.0 0.00 0.03 0.03 81 1012.9
20210803125705 64 313 3.0 9.0 0.00 0.03 0.03 82 1012.9
20210803125211 64 331 3.0 9.0 0.00 0.03 0.03 82 1012.9
20210803124705 64 345 4.0 8.0 0.00 0.03 0.03 82 1012.9
20210803124207 64 328 3.0 8.0 0.00 0.03 0.03 82 1012.9
20210803123706 63 349 3.0 6.0 0.00 0.03 0.03 83 1012.9
20210803123206 63 337 2.0 5.0 0.00 0.03 0.03 83 1013.1
20210803122706 63 355 2.0 5.0 0.00 0.03 0.03 85 1013.2
20210803122213 63 327 2.0 5.0 0.00 0.03 0.03 84 1013.2
20210803121707 63 327 2.0 5.0 0.00 0.03 0.03 85 1013.2
20210803120706 63 310 2.0 4.0 0.01 0.03 0.03 84 1013.3
20210803120225 63 10 1.0 4.0 0.01 0.03 0.03 85 1013.3
20210803115711 63 5 1.0 5.0 0.01 0.03 0.03 85 1013.3
20210803115206 63 5 1.0 5.0 0.01 0.03 0.03 86 1013.4
20210803114713 63 5 1.0 5.0 0.01 0.03 0.03 87 1013.3
20210803114205 63 19 1.0 5.0 0.01 0.03 0.03 87 1013.3
20210803113715 63 349 1.0 5.0 0.01 0.03 0.03 87 1013.3
20210803113207 63 5 1.0 4.0 0.01 0.03 0.03 87 1013.3
20210803112730 63 11 0.0 2.0 0.01 0.03 0.03 87 1013.3
20210803112206 63 57 0.0 2.0 0.01 0.03 0.03 87 1013.4
20210803111708 63 57 0.0 0.0 0.01 0.03 0.03 87 1013.4
20210803111206 63 74 0.0 0.0 0.00 0.02 0.02 87 1013.5
20210803110708 63 74 0.0 0.0 0.00 0.02 0.02 85 1013.5
20210803110206 63 74 0.0 0.0 0.00 0.02 0.02 85 1013.4
20210803105706 63 74 0.0 0.0 0.00 0.02 0.02 84 1013.4
20210803105206 63 74 0.0 2.0 0.00 0.02 0.02 84 1013.5
20210803104705 63 74 0.0 2.0 0.00 0.02 0.02 83 1013.4
20210803104208 63 74 0.0 2.0 0.00 0.02 0.02 83 1013.5
20210803103706 63 74 0.0 2.0 0.00 0.02 0.02 83 1013.5
20210803103209 64 74 0.0 2.0 0.00 0.02 0.02 83 1013.4
20210803102707 64 74 0.0 2.0 0.00 0.02 0.02 82 1013.5
20210803102205 64 74 0.0 2.0 0.00 0.02 0.02 82 1013.4
20210803101719 64 74 0.0 1.0 0.00 0.02 0.02 82 1013.4
20210803101207 64 74 0.0 1.0 0.00 0.02 0.02 82 1013.4
20210803100720 64 74 0.0 2.0 0.00 0.02 0.02 82 1013.5